Location: Nelson
(41.2830°S, 173.2830°E)
Time: 06:10:19
(UTC+12:00)

Atlas Centaur 2 - Pass Details

Date: 14 May 2021
Orbit: 459 x 1309 km, 30.4° (Epoch: 17 June)

Event Time Altitude Azimuth Distance (km) Brightness Sun altitude
Rises 19:43:25 0° 284° (WNW) 3,321 6.5 -27.1°
Reaches altitude 10° 19:46:06 10° 296° (WNW) 2,529 5.5 -27.6°
Maximum altitude 19:51:10 27° 351° (N) 1,835 4.0 -28.6°
Enters shadow 19:52:46 24° 12° (NNE) 1,989 4.0 -28.9°
